Tracking 19286 objects as of 18-Nov-2018
HD Live streaming from Space Station
objects crossing your sky now

COSMOS 1295

Track COSMOS 1295 now!
10-day predictions
COSMOS 1295 is classified as:


NORAD ID: 12681
Int'l Code: 1981-077A
Perigee: 950.5 km
Apogee: 1,017.2 km
Inclination: 82.9 °
Period: 104.6 minutes
Semi major axis: 7354 km
RCS: 2.187 m2 (large)
Launch date: August 12, 1981
Source: Commonwealth of Independent States (former USSR) (CIS)
Launch site: PLESETSK MISSILE AND SPACE COMPLEX (PKMTR)
aabbcc
Your satellite tracking list
Your tracking list is empty




NASA's NSSDC Master Catalog

Two Line Element Set (TLE):
1 12681U 81077A   18322.56347500  .00000026  00000-0  10701-4 0  9998
2 12681  82.9207  23.1503 0045382  90.0425  21.0761 13.76387186871759
Source of the keplerian elements: AFSPC